Regional Weather Roundup
Issued by NWS

Home | Current Version | Previous Version | Text Only | Print | Product List | Glossary Off
Versions: 1 2 3 4 5 6 7 8 9 10 11 12 13 14 15 16 17 18 19 20 21 22 23 24 25 26 27 28 29 30 31 32 33 34 35 36 37 38 39 40 41 42 43 44 45 46 47 48 49 50

000
ASUS43 KLOT 300921
RWRIL

ILLINOIS REGIONAL WEATHER ROUNDUP
NATIONAL WEATHER SERVICE CHICAGO/ROMEOVILLE IL
400 AM CDT THU JUL 30 2015

NOTE: "FAIR" INDICATES FEW OR NO CLOUDS BELOW 12,000 FEET WITH NO
SIGNIFICANT WEATHER AND/OR OBSTRUCTIONS TO VISIBILITY.

* THESE STATIONS ARE NOT UNDER NWS QUALITY CONTROL. THEY ALSO MAY NOT
  REPORT WEATHER SUCH AS PRECIPITATION OR FOG.

ILZ001-002-007-009-015-016-024-301000-
NORTHWEST ILLINOIS

CITY           SKY/WX    TMP DP  RH WIND       PRES   REMARKS
MOLINE         CLEAR     63  58  83 SW6       30.08S
STERLING*      CLEAR     63  57  82 W6        30.06S
SAVANNA*       CLEAR     62  57  84 CALM      30.06S
$$

ILZ003-004-008-010-011-017-018-301000-
NORTH CENTRAL ILLINOIS

CITY           SKY/WX    TMP DP  RH WIND       PRES   REMARKS
ROCKFORD       CLEAR     63  57  81 W6        30.05S
FREEPORT*      CLEAR     62  58  87 W6        30.07S
ROCHELLE*      CLEAR     58  57  95 W5        30.06S
DE KALB*       CLEAR     64  59  82 W8        30.05S
PERU*          CLEAR     67  59  76 W9        30.07S
$$

ILZ005-006-012>014-019>023-301000-
NORTHEAST ILLINOIS

CITY           SKY/WX    TMP DP  RH WIND       PRES   REMARKS
CHICAGO-OHARE  CLEAR     69  57  65 W9        30.02R
CHICAGO-MIDWAY CLEAR     72  56  57 W10       30.02R
AURORA         CLEAR     63  58  83 W7        30.05R
LANSING*       CLEAR     66  55  67 W6        30.03S
JOLIET*        CLEAR     66  60  82 W3        30.04S
WAUKEGAN       CLEAR     67  56  67 VRB3      30.00R
DUPAGE AIRPORT CLEAR     66  57  72 W8        30.03R
KANKAKEE*      CLEAR     63  61  91 W6        30.06S
WHEELING       CLEAR     70  56  61 W6        30.02S
MORRIS*        CLEAR     63  59  86 W6        30.04S
ROMEOVILLE*    CLEAR     63  57  83 W5        30.04S
NORTHERLY ISL    N/A     72  56  57 NW7         N/A
$$

LMZ740>746-301000-
SOUTHERN LAKE MICHIGAN

STATION/POSITION SKY/WX   TEMP    WIND        PRES    VSBY  WAVE
                          AIR SEA DIR/SP/G                  HT/PER
                          (F)     (DEG/KT/KT) (MB)    (MI)  (FT/S)
HARRISON CRIB              72     280/ 16/ 18   N/A
BURNHAM HARBOR             71     290/  7/ 11   N/A
BURNS HARBOR               72     250/  9/ 14 1016.9R
MICHIGAN CITY              73     240/ 15/ 17   N/A
MICHIGAN CITY 6N           74 73  280/ 12/ 17   N/A           3/ 4
ST. JOSEPH                 74 73  330/ 14/ 16   N/A           3/ 4
$$

ILZ025>027-034>036-040-047-049-050-058-095>099-301000-
WEST-CENTRAL ILLINOIS

CITY           SKY/WX    TMP DP  RH WIND       PRES   REMARKS
QUINCY         CLEAR     66  60  81 W5        30.13S
GALESBURG*     CLEAR     64  60  85 W5        30.11S
MACOMB*        CLEAR     63  60  93 W6        30.14R
JACKSONVILLE*  CLEAR     65  62  87 W6        30.12S
PITTSFIELD*    CLEAR     66  61  85 W3        30.14S
$$

ILZ028>032-037-038-041>044-048-051>054-059>061-301000-
CENTRAL ILLINOIS

CITY           SKY/WX    TMP DP  RH WIND       PRES   REMARKS
PONTIAC        CLEAR     64  61  91 W5        30.08S
BLOOMINGTON    CLEAR     68  61  78 W12       30.10S
DECATUR        CLEAR     70  60  70 NW9       30.10R
PEORIA         CLEAR     67  60  78 W5        30.10S
LACON*         CLEAR     67  59  75 CALM      30.07S
LINCOLN*       CLEAR     68  60  75 NW5       30.10R
SPRINGFIELD    CLEAR     63  59  87 W5        30.10F
TAYLORVILLE    CLEAR     61  59  94 CALM      30.10S
$$

ILZ033-039-045-046-055>057-062-063-301000-
EAST-CENTRAL ILLINOIS

CITY           SKY/WX    TMP DP  RH WIND       PRES   REMARKS
CHAMPAIGN      CLEAR     63  60  90 W6        30.09R
DANVILLE*      CLEAR     64  60  88 W5        30.05R
RANTOUL*       CLEAR     65  62  90 W8        30.08S
MATTOON        CLEAR     63  57  81 NW7       30.08S
PARIS*         CLEAR     63  60  91 W7        30.08S
$$

ILZ079-100>102-301000-
SOUTHWEST ILLINOIS

CITY           SKY/WX    TMP DP  RH WIND       PRES   REMARKS
ALTON          CLEAR     67  59  75 NW3       30.11S
BELLEVILLE     CLEAR     66  62  87 CALM      30.10R
CAHOKIA*       CLEAR     66  62  87 CALM      30.11S
SPARTA*        CLEAR     69  60  75 CALM      30.11S
$$

ILZ064>066-069>071-074>076-080>082-084>086-088>090-092>094-301000-
SOUTH-CENTRAL ILLINOIS

CITY           SKY/WX    TMP DP  RH WIND       PRES   REMARKS
CARBONDALE     CLEAR     68  65  90 CALM      30.10R
CAIRO*         CLEAR     72  64  77 N3        30.08S
EFFINGHAM*     CLEAR     63  58  83 W5        30.11S
MARION         CLEAR     68  64  88 CALM      30.10S
MT. VERNON     CLEAR     68  57  68 N5        30.11R
CENTRALIA*     CLEAR     64  60  87 CALM      30.10S
SALEM*         CLEAR     66  61  83 CALM      30.11R
METROPOLIS*    CLEAR     72  66  83 N3        30.09R
$$

ILZ067-068-072-073-078-083-087-091-301000-
SOUTHEAST ILLINOIS

CITY           SKY/WX    TMP DP  RH WIND       PRES   REMARKS
LAWRENCEVILLE  CLEAR     65  60  84 NW5       30.08R
FLORA*         CLEAR     65  59  80 NW5       30.10R
FAIRFIELD*     CLEAR     66  61  82 CALM      30.08S
HARRISBURG*    CLEAR     69  63  81 N3        30.10R
ROBINSON*      CLEAR     64  60  90 CALM      30.09R
CARMI*         CLEAR     66  60  81 CALM      30.08R
$$

ABBREVIATIONS USED IN REMARKS
   TC - TEMPERATURE IN CELSIUS
  WCI - WIND CHILL INDEX
   HX - HEAT INDEX
  VSB - VISIBILITY
$$




USA.gov is the U.S. government's official web portal to all federal, state and local government web resources and services.